Weather in Shukavka

Russia / Voronezh Oblast     51°52′44″N   40°11′02″E
temp.,
°C
wind,
m/s
gust,
m/s
humid.,
%
clouds,
%
prec.,
mm/h
press.,
hPa
HPBL,
m
26 february, fri
fri2600:00+1w61199100 0.1 1017284
03:00+2wnw51099100 0.1 1017239
06:00+2w49100100 0.2 1016164
09:00+2w613100100 1.4 1015310
12:00+3w614100100 0.0 1013305
15:00+3w81699100 0.0 1012459
18:00+3w71599100 0.3 1010409
21:00+2w71498100 0.3 1009465
27 february, sat
sat2700:00+1w51193100 0.0 1008439
03:00+1w51193100 0.0 1008448
06:00+1w61291100 0.0 1007503
09:00+1wnw71296100 0.1 1007632
12:00+1w7129697 0.0 1006650
15:00+1wnw7139697 0.1 1007634
18:00+1wnw6129297 0.1 1008582
21:00−1n5119298 0.1 1010654
28 february, sun
sun2800:00−5nnw499141 0.0 1012457
03:00−7nnw489028 0.0 1014463
06:00−8nnw489071 0.0 1015447
09:00−8nnw468859 0.0 1016446
12:00−6nnw468593 0.0 1017501
15:00−5nnw468596 0.0 1017574
18:00−5nnw3693100 0.1 1017428
21:00−6nnw259585 0.1 1019176
1 march, mon
mon100:00−7n249566 0.0 1021164
03:00−8n239337 0.0 102277
06:00−9nnw23940 0.0 102488
09:00−8n249225 0.0 1026213
12:00−6nnw348486 0.0 1027387
15:00−4nw238493 0.0 1027388
18:00−5w239285 0.0 102740
21:00−5wsw499563 0.0 1027252
2 march, tue
tue200:00−4wsw5119088 0.0 1025321
03:00−3w6129594 0.1 1022420
06:00−1w71396100 0.3 1019499
09:000wnw71292100 0.3 1018646
12:000wnw61293100 0.0 1017637
15:00+1wnw71395100 0.1 1016716
18:00+1nw71490100 0.1 1015690
21:000nw61293100 0.3 1017638